[[{"header":{"parameterUnit":"m.s-1","parameterCategory":1,"la1":30.2991,"la2":30.254,"lo1":-89.0895,"lo2":-89.0444,"dy":0.0017,"dx":0.0017,"nx":28,"ny":28,"refTime":"2024-05-15T09:00:00:Z","depth":0,"parameterNumber":2,"parameterNumberName":"U-component_of_WINDS"},"data":[0,0,0,0,0,0,0,0,0,0,0,0,0,0,0,0,0,0,0,0,0,0,0,0,0,0,0,0,0,0,0,0,0,0,0,0,0,0,0,0,0,0,0,0,0,0,0,0,0,0,0,0,0,0,0,0,0,0,-0.5405,-0.5404,0,-0.5267,-0.5266,-0.5264,-0.5225,-0.5226,-0.5227,-0.5228,-0.508,-0.5075,-0.5071,0,0,0,0,0,0,0,0,0,0,0,0,0,-0.5628,-0.5624,-0.5406,-0.5404,-0.5402,-0.5268,-0.5266,-0.5264,-0.5225,-0.5226,-0.5227,-0.5228,-0.5081,-0.5076,-0.507,0,0,0,0,0,0,0,0,0,0,0,0,0,-0.5515,-0.5623,-0.5406,-0.5367,-0.5362,-0.5268,-0.5266,-0.5263,-0.5225,-0.5226,-0.5227,-0.5229,-0.5083,-0.5076,-0.5069,-0.5002,0,0,-0.5048,-0.5045,0,0,0,0,0,0,0,0,-0.5521,-0.5507,-0.5374,-0.5369,-0.5364,-0.5265,-0.529,-0.5176,-0.5225,-0.5277,-0.5228,-0.5229,-0.514,-0.5128,-0.51,-0.4995,-0.4989,-0.5047,-0.5043,-0.504,-0.5038,0,0,0,0,0,0,0,-0.5529,-0.5512,-0.5351,-0.5372,-0.5366,-0.5354,-0.5339,-0.5268,-0.5203,-0.5272,-0.5269,-0.5254,-0.5137,-0.5107,-0.5096,-0.4987,-0.5048,-0.5041,-0.5037,-0.5034,-0.4816,-0.4815,0,0,0,0,0,0,-0.5545,-0.5519,-0.5355,-0.5347,-0.5447,-0.5349,-0.5332,-0.5295,-0.5204,-0.5191,-0.5253,-0.5253,-0.5118,-0.5104,-0.5091,-0.5003,-0.504,-0.5034,-0.503,-0.4818,-0.4816,-0.4814,0,0,0,0,0,0,-0.555,-0.5531,-0.5361,-0.5432,-0.5409,-0.5344,-0.5303,-0.5292,-0.5261,-0.5189,-0.5177,-0.5234,-0.5118,-0.51,-0.5024,-0.4997,-0.503,-0.5024,-0.482,-0.4817,-0.4815,-0.4829,0,0,0,0,0,0,-0.5556,-0.5533,-0.5508,-0.5432,-0.5406,-0.5299,-0.5301,-0.5288,-0.525,-0.5248,-0.5168,-0.5156,-0.5118,-0.5035,-0.5017,-0.4988,-0.5019,-0.4822,-0.4819,-0.4816,-0.4831,-0.4828,-0.4825,0,0,0,0,0,-0.5564,-0.5517,-0.5507,-0.5488,-0.5375,-0.5298,-0.5282,-0.5241,-0.5248,-0.5222,-0.5175,-0.5158,-0.5004,-0.5027,-0.5007,-0.4976,-0.4823,-0.482,-0.4816,-0.4832,-0.4828,-0.4825,0,0,0,0,0,0,-0.5591,-0.5507,-0.5495,-0.5422,-0.5367,-0.5291,-0.5257,-0.5239,-0.518,-0.518,-0.513,-0.5112,-0.5039,-0.5,-0.5028,-0.4904,-0.4913,-0.4905,-0.4932,-0.4928,-0.4925,-0.4934,-0.5013,0,0,0,0,0,-0.5589,-0.5535,-0.5464,-0.5406,-0.538,-0.5323,-0.5288,-0.5261,-0.5202,-0.5178,-0.5126,-0.5067,-0.5004,-0.4964,-0.4903,-0.4826,-0.4805,-0.4794,-0.4791,-0.4789,-0.4782,-0.4734,-0.4727,-0.4803,-0.4803,-0.4803,0,0,-0.5583,-0.553,-0.5499,-0.541,-0.5365,-0.5308,-0.5304,-0.5245,-0.5201,-0.5168,-0.5093,-0.5052,-0.4983,-0.4905,-0.4868,-0.487,-0.4757,-0.4785,-0.4783,-0.4777,-0.473,-0.4723,-0.4716,-0.48,-0.4801,-0.4801,0,0,-0.5542,-0.5499,-0.5444,-0.5399,-0.5331,-0.5293,-0.528,-0.5206,-0.5178,-0.5102,-0.5076,-0.5022,-0.4917,-0.4867,-0.4828,-0.4767,-0.4748,-0.4748,-0.4732,-0.4686,-0.468,-0.4674,-0.4649,-0.4641,-0.4742,-0.4742,-0.4742,0,-0.5542,-0.5458,-0.5418,-0.5359,-0.5319,-0.5289,-0.5232,-0.5189,-0.5103,-0.5075,-0.508,-0.4945,-0.4896,-0.4805,-0.479,-0.476,-0.4741,-0.4756,-0.4685,-0.4678,-0.4672,-0.4647,-0.4638,-0.4742,-0.4742,-0.4742,-0.4742,0,-0.546,-0.5402,-0.5366,-0.5285,-0.5241,-0.5184,-0.5132,-0.5092,-0.5069,-0.503,-0.495,-0.4891,-0.4816,-0.4793,-0.4769,-0.4696,-0.4699,-0.4695,-0.4702,-0.4666,-0.4641,-0.4632,-0.4743,-0.4743,-0.4743,-0.4743,0,0,-0.5432,-0.5329,-0.5316,-0.5278,-0.52,-0.5152,-0.5092,-0.502,-0.4985,-0.4927,-0.4872,-0.4783,-0.4778,-0.4734,-0.4704,-0.4664,-0.4614,-0.4664,-0.4661,-0.4654,-0.4526,-0.4527,-0.4517,-0.4603,-0.4601,-0.4599,-0.453,0,-0.5379,-0.5272,-0.5233,-0.5144,-0.5087,-0.5057,-0.5003,-0.4948,-0.4909,-0.4853,-0.481,-0.4746,-0.4746,-0.4719,-0.4678,-0.4629,-0.4588,-0.4634,-0.4547,-0.4545,-0.4563,-0.4505,-0.4507,-0.4445,-0.4521,-0.4519,-0.4518,0,-0.5303,-0.5244,-0.515,-0.5076,-0.505,-0.5004,-0.4933,-0.4881,-0.4816,-0.4791,-0.4741,-0.4713,-0.4645,-0.4659,-0.4562,-0.4595,-0.4557,-0.4527,-0.4524,-0.4511,-0.4527,-0.4488,-0.4425,-0.4414,-0.4503,-0.4505,-0.4506,0,-0.5287,-0.5185,-0.5114,-0.5083,-0.4996,-0.4963,-0.4924,-0.4861,-0.4819,-0.4757,-0.4728,-0.4659,-0.462,-0.4565,-0.4518,-0.4533,-0.4424,-0.4434,-0.4397,-0.4398,-0.4373,-0.4375,-0.43,-0.4355,-0.4355,-0.4355,-0.4355,0,-0.523,-0.5172,-0.5106,-0.5062,-0.4995,-0.495,-0.4884,-0.4844,-0.4787,-0.4732,-0.4702,-0.4651,-0.4594,-0.4534,-0.4497,-0.442,-0.4403,-0.4378,-0.4368,-0.4379,-0.4382,-0.4351,-0.4353,-0.4353,-0.4353,-0.4354,-0.4354,0,-0.5201,-0.5154,-0.5074,-0.4999,-0.4978,-0.4932,-0.4865,-0.482,-0.478,-0.4711,-0.4692,-0.4628,-0.4556,-0.4505,-0.4412,-0.4387,-0.4303,-0.4295,-0.4325,-0.4319,-0.4284,-0.4286,-0.4184,-0.4166,-0.4237,-0.4236,-0.4236,0,-0.5166,-0.5121,-0.504,-0.5002,-0.4964,-0.4904,-0.4861,-0.4815,-0.4771,-0.4692,-0.4655,-0.4581,-0.4519,-0.4405,-0.4349,-0.4276,-0.4264,-0.4233,-0.4253,-0.4264,-0.4259,-0.4261,-0.4254,-0.4229,-0.4229,-0.4228,-0.4228,0,-0.5108,-0.5087,-0.5028,-0.496,-0.491,-0.4853,-0.4796,-0.4766,-0.4709,-0.4661,-0.4587,-0.454,-0.4444,-0.437,-0.4292,-0.4249,-0.4227,-0.4223,-0.4209,-0.4218,-0.4236,-0.4222,-0.4313,-0.4224,-0.4225,-0.4225,-0.4225,-0.4225,-0.5072,-0.503,-0.4966,-0.4899,-0.4852,-0.4799,-0.4752,-0.4706,-0.4645,-0.4565,-0.454,-0.4463,-0.4396,-0.4289,-0.4245,-0.4182,-0.4183,-0.4165,-0.416,-0.4155,-0.4153,-0.4249,-0.4168,-0.4168,-0.4168,-0.4168,-0.4168,0,-0.501,-0.4967,-0.4907,-0.4828,-0.4775,-0.4763,-0.4698,-0.4654,-0.4587,-0.4527,-0.4467,-0.4381,-0.4308,-0.4246,-0.4169,-0.413,-0.4118,-0.4111,-0.4112,-0.4101,-0.4159,-0.4176,-0.4122,-0.4122,-0.4122,-0.4122,-0.4122,-0.4122,-0.4971,-0.4897,-0.4867,-0.4768,-0.4725,-0.465,-0.4614,-0.4563,-0.4515,-0.4421,-0.4361,-0.4322,-0.4259,-0.4178,-0.4109,-0.4092,-0.4064,-0.4059,-0.4039,-0.4093,-0.4098,-0.4103,-0.4119,-0.4054,-0.4054,-0.3987,-0.3986,-0.3986]},{"header":{"parameterUnit":"m.s-1","parameterCategory":1,"la1":30.2991,"la2":30.254,"lo1":-89.0895,"lo2":-89.0444,"dy":0.0017,"dx":0.0017,"nx":28,"ny":28,"refTime":"2024-05-15T09:00:00:Z","depth":0,"parameterNumber":3,"parameterNumberName":"V-component_of_WINDS"},"data":[0,0,0,0,0,0,0,0,0,0,0,0,0,0,0,0,0,0,0,0,0,0,0,0,0,0,0,0,0,0,0,0,0,0,0,0,0,0,0,0,0,0,0,0,0,0,0,0,0,0,0,0,0,0,0,0,0,0,0.9184,0.9185,0,0.9235,0.9236,0.9236,0.9186,0.9184,0.9182,0.918,0.9234,0.9237,0.924,0,0,0,0,0,0,0,0,0,0,0,0,0,0.9046,0.9049,0.9184,0.9185,0.9186,0.9235,0.9236,0.9236,0.9186,0.9184,0.9181,0.9179,0.9232,0.9236,0.924,0,0,0,0,0,0,0,0,0,0,0,0,0,0.9102,0.905,0.9184,0.9166,0.9165,0.9235,0.9236,0.9237,0.9187,0.9184,0.9181,0.9178,0.9231,0.9236,0.9241,0.9331,0,0,0.9256,0.9258,0,0,0,0,0,0,0,0,0.9099,0.9108,0.9168,0.9168,0.9167,0.9201,0.9207,0.9268,0.9187,0.9179,0.918,0.9176,0.9225,0.923,0.9247,0.9334,0.9336,0.9256,0.9259,0.9261,0.9263,0,0,0,0,0,0,0,0.9095,0.9105,0.9204,0.9169,0.9168,0.9157,0.9161,0.9218,0.9218,0.9179,0.9175,0.9182,0.9224,0.9242,0.9247,0.9337,0.9256,0.9261,0.9264,0.9266,0.9503,0.9506,0,0,0,0,0,0,0.9093,0.9102,0.9203,0.9206,0.9125,0.9162,0.9167,0.9193,0.9217,0.9218,0.9185,0.918,0.9235,0.9242,0.9249,0.9358,0.9261,0.9266,0.9269,0.9499,0.9503,0.9507,0,0,0,0,0,0,0.909,0.9103,0.9201,0.9153,0.9165,0.9167,0.9197,0.9196,0.9213,0.9221,0.9221,0.9203,0.9233,0.9242,0.9311,0.9359,0.9268,0.9273,0.9495,0.9501,0.9505,0.9576,0,0,0,0,0,0,0.9087,0.9102,0.9136,0.9154,0.9167,0.9262,0.92,0.9199,0.9222,0.9216,0.9238,0.9239,0.9231,0.9304,0.9316,0.9364,0.9277,0.9491,0.9498,0.9504,0.9569,0.9583,0.9594,0,0,0,0,0,0.9082,0.9153,0.9138,0.915,0.9209,0.9264,0.9272,0.9261,0.9226,0.926,0.9266,0.9239,0.9352,0.9312,0.9325,0.9375,0.9488,0.9496,0.9503,0.9564,0.958,0.9594,0,0,0,0,0,0,0.9141,0.9155,0.9138,0.9218,0.924,0.9256,0.9299,0.9278,0.9312,0.9305,0.929,0.9295,0.9369,0.9379,0.9334,0.9465,0.9414,0.9425,0.9456,0.9472,0.9484,0.948,0.9281,0,0,0,0,0,0.9163,0.9205,0.9216,0.9285,0.9298,0.9297,0.932,0.9309,0.9332,0.9342,0.9352,0.9376,0.9417,0.9445,0.9483,0.957,0.9575,0.9611,0.9624,0.9634,0.9643,0.9692,0.9709,0.9532,0.9532,0.9531,0,0,0.9209,0.9222,0.925,0.9298,0.9314,0.936,0.9305,0.9355,0.9389,0.935,0.9416,0.9425,0.945,0.953,0.9565,0.954,0.9693,0.9643,0.9651,0.9656,0.9702,0.9719,0.9733,0.9537,0.9536,0.9535,0,0,0.9317,0.9331,0.9391,0.9408,0.9433,0.9432,0.9447,0.9466,0.947,0.9537,0.9509,0.9549,0.962,0.964,0.9659,0.9777,0.9754,0.9789,0.9855,0.9902,0.9916,0.9929,0.9972,0.9988,0.9799,0.9799,0.9799,0,0.9371,0.9438,0.9424,0.9477,0.9499,0.9465,0.9527,0.9545,0.9582,0.9599,0.957,0.9659,0.9674,0.9758,0.9787,0.9803,0.982,0.9787,0.9915,0.9928,0.9939,0.9981,0.9997,0.9803,0.9803,0.9802,0.9802,0,0.9505,0.9552,0.9598,0.9634,0.9662,0.9719,0.9714,0.9744,0.9731,0.9734,0.9803,0.9819,0.9861,0.988,0.9868,0.9964,0.9947,0.9917,0.9867,0.9961,0.9999,1.0015,0.9809,0.9808,0.9806,0.9805,0,0,0.9651,0.968,0.9697,0.9714,0.974,0.9777,0.9833,0.9873,0.99,0.9927,0.9974,1.0035,1.0008,1.0031,1.0021,1.0062,1.0157,1.0027,1.0028,1.0052,1.0265,1.0289,1.0307,1.0141,1.0144,1.0146,1.0264,0,0.9761,0.9858,0.9848,0.9941,0.9985,0.9954,1.0003,1.0025,1.0029,1.0068,1.0072,1.0117,1.0076,1.009,1.013,1.0137,1.0199,1.0128,1.0187,1.0189,1.0183,1.0327,1.0352,1.0462,1.0278,1.0281,1.0283,0,0.9903,0.9935,1.0032,1.0053,1.0071,1.0115,1.0153,1.019,1.0215,1.0215,1.0241,1.0224,1.0281,1.0229,1.0309,1.0261,1.0284,1.0291,1.0295,1.0302,1.0243,1.0339,1.0497,1.0514,1.0306,1.0304,1.0303,0,1.0002,1.0069,1.0137,1.0152,1.0178,1.021,1.0222,1.0244,1.027,1.0302,1.0319,1.0358,1.038,1.0411,1.0406,1.0368,1.0489,1.0435,1.0492,1.0493,1.052,1.0519,1.0685,1.0533,1.0532,1.0532,1.0532,0,1.0127,1.0188,1.0182,1.0224,1.0292,1.028,1.0348,1.0356,1.0376,1.042,1.0395,1.0437,1.0427,1.0469,1.0465,1.0533,1.0543,1.0546,1.0544,1.0549,1.0549,1.0565,1.0558,1.0536,1.0535,1.0535,1.0534,0,1.025,1.0248,1.032,1.0338,1.0344,1.0394,1.041,1.045,1.0452,1.0508,1.0521,1.0525,1.0573,1.057,1.0624,1.0622,1.0707,1.0695,1.0699,1.0697,1.0755,1.075,1.0939,1.0964,1.0793,1.0795,1.0796,0,1.033,1.0377,1.04,1.0428,1.0442,1.0487,1.0513,1.0503,1.0532,1.0564,1.0601,1.0647,1.0683,1.0761,1.077,1.0811,1.0802,1.0865,1.0808,1.0812,1.0805,1.0803,1.0809,1.0877,1.0879,1.0881,1.0882,0,1.0474,1.0471,1.051,1.0549,1.0581,1.0611,1.0639,1.0663,1.0656,1.069,1.0739,1.0767,1.0823,1.0869,1.0909,1.0923,1.0903,1.09,1.0915,1.0921,1.0922,1.0925,1.0731,1.0896,1.0894,1.0893,1.0892,1.0892,1.0579,1.062,1.0644,1.0688,1.0708,1.0735,1.0774,1.0781,1.0822,1.0866,1.0858,1.0913,1.0938,1.099,1.1008,1.1052,1.1029,1.1052,1.1058,1.1064,1.1071,1.0914,1.1059,1.1058,1.1058,1.1058,1.1057,0,1.0724,1.0737,1.0778,1.0818,1.0854,1.083,1.086,1.0892,1.0941,1.0966,1.1002,1.1059,1.1104,1.1116,1.116,1.1193,1.1185,1.1205,1.1204,1.1208,1.1088,1.1071,1.1211,1.1211,1.1211,1.1211,1.1211,1.1211,1.0803,1.0871,1.0871,1.095,1.0963,1.1017,1.1037,1.1062,1.1082,1.1147,1.1184,1.1192,1.1212,1.1258,1.1299,1.1301,1.1319,1.1344,1.1343,1.1231,1.1216,1.1201,1.1185,1.1347,1.1348,1.1459,1.146,1.1461]}]]